Regional Weather Roundup
Issued by NWS

Home | Current Version | Previous Version | Text Only | Print | Product List | Glossary Off
Versions: 1 2 3 4 5 6 7 8 9 10 11 12 13 14 15 16 17 18 19 20 21 22 23 24 25 26 27 28 29 30 31 32 33 34 35 36 37 38 39 40 41 42 43 44 45 46 47 48 49 50

000
ASUS43 KOAX 090310
RWRNE

WEATHER ROUNDUP FOR NEBRASKA
NATIONAL WEATHER SERVICE OMAHA NE
900 PM CST THU DEC 08 2016

NOTES: SATELLITE DATA IS BEING USED TO AUGMENT CLOUD COVER ABOVE
       12000 FEET.
       "FAIR" INDICATES FEW OR NO CLOUDS BELOW 12,000 FEET WITH NO
       SIGNIFICANT WEATHER AND/OR OBSTRUCTIONS TO VISIBILITY.

  * THESE STATIONS DO NOT REPORT WEATHER SUCH AS RAIN...SNOW OR FOG.

NEZ001>004-019>022-054>056-090400-
NEBRASKA PANHANDLE

CITY           SKY/WX    TMP DP  RH WIND       PRES   REMARKS
SCOTTSBLUFF    CLOUDY     4  -3  73 E6        30.35F WCI  -7
ALLIANCE       CLOUDY     3  -3  76 S13       30.36F WCI -14
CHADRON        CLOUDY    -1  -8  72 N3        30.40F
KIMBALL        CLOUDY     3   0  85 S8        30.28F WCI -10
SIDNEY         CLOUDY     4  -2  76 S9        30.35F WCI -10
$$

NEZ057>060-069>072-079>082-090400-
SOUTHWEST NEBRASKA

CITY           SKY/WX    TMP DP  RH WIND       PRES   REMARKS
NORTH PLATTE   CLOUDY     4  -2  76 CALM      30.52F
IMPERIAL       CLOUDY     3  -3  76 S5        30.48F WCI  -6
LEXINGTON      CLOUDY     9   2  71 CALM      30.55F
MCCOOK         CLOUDY     2  -2  83 SW8       30.55F WCI -12
OGALLALA       CLOUDY     8   1  72 CALM      30.47F
$$

NEZ005>010-023>029-035>040-094-090400-
NORTH CENTRAL NEBRASKA

CITY           SKY/WX    TMP DP  RH WIND       PRES   REMARKS
VALENTINE      CLOUDY    -1  -7  75 CALM      30.52F
AINSWORTH      CLEAR      4  -3  74 CALM      30.52F
BROKEN BOW     CLEAR      3  -3  76 CALM      30.53F
O`NEILL        CLEAR      5   0  78 NW6       30.59F WCI  -6
ORD            CLEAR      2  -4  76 CALM      30.58F
THEDFORD       CLOUDY     3  -5  66 CALM      30.51S
$$

NEZ041-046>049-061>064-073>077-083>087-090400-
SOUTH CENTRAL NEBRASKA

CITY           SKY/WX    TMP DP  RH WIND       PRES   REMARKS
GRAND ISLAND   CLEAR      9   2  73 NW3       30.60F
AURORA         CLEAR      9   1  70 NW5       30.60F WCI   0
HASTINGS       CLEAR     11   3  70 CALM      30.60F
HEBRON         CLEAR     12   6  79 CALM      30.65S
HOLDREGE       CLEAR     12   2  65 CALM      30.56F
KEARNEY *      CLEAR     10   0  61 CALM      30.58F
YORK           CLEAR      9   3  78 CALM      30.62S
$$

NEZ011>018-030>034-042>045-090400-
NORTHEAST NEBRASKA

CITY           SKY/WX    TMP DP  RH WIND       PRES   REMARKS
NORFOLK        CLEAR      8   0  69 W6        30.62S WCI  -2
ALBION         CLEAR      6  -1  73 NW5       30.61S WCI  -3
BLAIR          CLEAR     16   8  70 NW9       30.62S WCI   4
FREMONT        CLEAR     11   6  77 NW6       30.64S WCI   2
TEKAMAH        CLEAR     14   6  70 NW10      30.65R WCI   1
WAYNE          CLEAR      9   4  79 NW6       30.62F WCI  -1
$$

NEZ050>053-065>068-078-088>093-090400-
SOUTHEAST NEBRASKA

CITY           SKY/WX    TMP DP  RH WIND       PRES   REMARKS
LINCOLN        CLEAR     12   5  73 N3        30.66S
OMAHA EPPLEY   CLEAR     14   6  70 NW8       30.65R WCI   3
BEATRICE       CLEAR     13   6  73 CALM      30.64S
FALLS CITY     CLEAR     14   8  77 NW6       30.65R WCI   5
NEBRASKA CITY  CLEAR     16   6  63 NW6       30.63S WCI   8
PLATTSMOUTH    CLEAR     15   5  64 NW7       30.64R WCI   5
$$

NEZ044-045-051>053-067-090400-
OMAHA AREA

CITY           SKY/WX    TMP DP  RH WIND       PRES   REMARKS
OMAHA EPPLEY   CLEAR     14   6  70 NW8       30.65R WCI   3
BLAIR          CLEAR     16   8  70 NW9       30.62S WCI   4
FREMONT        CLEAR     11   6  77 NW6       30.64S WCI   2
MILLARD        CLEAR     20  10  64 NW5       30.65S WCI  13
OFFUTT AFB     CLEAR     17   7  65 NW9       30.64S WCI   6
PLATTSMOUTH    CLEAR     15   5  64 NW7       30.64R WCI   5
WAHOO          FAIR      13   6  72 NW7       30.64S WCI   3
$$



USA.gov is the U.S. government's official web portal to all federal, state and local government web resources and services.